Jennings, LA

5:00 PM CST on February 13, 2016 (GMT -0600)
Jennings

Weather History for K3R7 - November, 2013

Change the Weather History Date:

Sunday, November 24, 2013

  Actual Average (KLCH) Record (KLCH)
Temperature  
Mean Temperature 44 °F 59 °F  
Max Temperature 50 °F 69 °F 90 °F (1915)
Min Temperature 38 °F 48 °F 28 °F (1911)
Degree Days  
Heating Degree Days 21 8  
Month to date heating degree days 120  
Since 1 July heating degree days 156  
Cooling Degree Days 0 1  
Month to date cooling degree days 48  
Year to date cooling degree days 2781  
Moisture  
Dew Point 30 °F    
Average Humidity 61    
Maximum Humidity 74    
Minimum Humidity 41    
Precipitation  
Precipitation 0.00 in 0.14 in 2.41 in (1986)
Month to date precipitation 3.57  
Year to date precipitation 51.95  
Snow  
Snow 0.00 in 0.00 in 0.00 in ()
Month to date snowfall 0.0  
Since 1 July snowfall 0.0  
Since 1 September snowfall 0.0  
Snow Depth -    
Sea Level Pressure  
Sea Level Pressure 30.36 in    
Wind  
Wind Speed 15 mph (NNE)    
Max Wind Speed 21 mph    
Max Gust Speed 29 mph    
Visibility 10 miles    
Events      
T = Trace of Precipitation, MM = Missing Value Source: NWS Daily Summary

Daily Weather History Graph

Daily Weather History Graph

Search for Another Location

Airport or City:

Trip Planner

Search our weather history database for the weather conditions in past years. The results will help you decide how hot, cold, wet, or windy it might be!

Date:

Astronomy

Nov. 24, 2013 Rise Set
Actual Time 6:43 AM CST 5:10 PM CST
Civil Twilight 6:18 AM CST 5:36 PM CST
Nautical Twilight 5:48 AM CST 6:05 PM CST
Astronomical Twilight 5:19 AM CST 6:34 PM CST
Moon 11:23 PM CST (11/24) 11:43 AM CST (11/24)
Length of Visible Light 11h 18m
Length of Day
10h 26m
Waning Gibbous, 60% of the Moon is Illuminated
Nov 24
Waning Gibbous
Nov 25
Last Quarter
Dec 2
New
Dec 9
First Quarter
Dec 17
Full

Hourly Weather History & Observations

Time (CST) Temp. Windchill Dew Point Humidity Pressure Visibility Wind Dir Wind Speed Gust Speed Precip Events Conditions
12:15 AM 44.2 °F 37.0 °F 36.5 °F 74% 30.36 in 10.0 mi NNE 16.1 mph 23.0 mph N/A   Clear
12:35 AM 44.2 °F 37.3 °F 36.0 °F 73% 30.36 in 10.0 mi NNE 15.0 mph 24.2 mph N/A   Clear
12:55 AM 44.1 °F 36.8 °F 35.1 °F 71% 30.36 in 10.0 mi NNE 16.1 mph 20.7 mph N/A   Clear
1:15 AM 43.5 °F 37.1 °F 34.9 °F 72% 30.36 in 10.0 mi NNE 12.7 mph 17.3 mph N/A   Clear
1:35 AM 42.8 °F 36.2 °F 33.8 °F 70% 30.35 in 10.0 mi NNE 12.7 mph 21.9 mph N/A   Clear
1:55 AM 42.3 °F 34.4 °F 32.4 °F 68% 30.35 in 10.0 mi NNE 16.1 mph 21.9 mph N/A   Clear
2:15 AM 41.9 °F 34.6 °F 32.0 °F 68% 30.35 in 10.0 mi NNE 13.8 mph 21.9 mph N/A   Clear
2:35 AM 41.5 °F 33.2 °F 32.0 °F 69% 30.35 in 10.0 mi NNE 17.3 mph 25.3 mph N/A   Clear
2:55 AM 41.2 °F 32.7 °F 31.8 °F 69% 30.34 in 10.0 mi NE 17.3 mph 21.9 mph N/A   Clear
3:15 AM 41.0 °F 33.5 °F 31.3 °F 68% 30.35 in 10.0 mi NNE 13.8 mph 23.0 mph N/A   Clear
3:35 AM 40.5 °F 32.5 °F 31.1 °F 69% 30.36 in 10.0 mi NNE 15.0 mph 21.9 mph N/A   Clear
3:55 AM 40.1 °F 31.3 °F 31.1 °F 70% 30.36 in 10.0 mi NNE 17.3 mph 23.0 mph N/A   Clear
4:15 AM 39.9 °F 31.8 °F 30.7 °F 70% 30.37 in 10.0 mi NNE 15.0 mph 25.3 mph N/A   Clear
4:35 AM 39.6 °F 31.3 °F 30.4 °F 70% 30.36 in 10.0 mi NE 15.0 mph 24.2 mph N/A   Clear
4:55 AM 39.4 °F 31.1 °F 30.0 °F 69% 30.36 in 10.0 mi NNE 15.0 mph 24.2 mph N/A   Clear
5:15 AM 39.2 °F 31.2 °F 29.3 °F 68% 30.36 in 10.0 mi NE 13.8 mph 19.6 mph N/A   Clear
5:35 AM 39.2 °F 30.5 °F 29.1 °F 67% 30.36 in 10.0 mi NE 16.1 mph 20.7 mph N/A   Clear
5:55 AM 39.2 °F 30.8 °F 29.1 °F 67% 30.38 in 10.0 mi NNE 15.0 mph 20.7 mph N/A   Clear
6:15 AM 38.8 °F 30.0 °F 28.9 °F 68% 30.38 in 10.0 mi NNE 16.1 mph 19.6 mph N/A   Clear
6:35 AM 38.7 °F 29.1 °F 28.4 °F 67% 30.38 in 10.0 mi NE 18.4 mph 21.9 mph N/A   Clear
6:55 AM 38.5 °F 29.2 °F 28.8 °F 68% 30.39 in 10.0 mi NE 17.3 mph 23.0 mph N/A   Clear
7:15 AM 38.7 °F 29.8 °F 28.6 °F 67% 30.41 in 10.0 mi NE 16.1 mph 23.0 mph N/A   Clear
7:35 AM 39.2 °F 30.8 °F 28.8 °F 66% 30.41 in 10.0 mi NNE 15.0 mph 21.9 mph N/A   Clear
7:55 AM 39.7 °F 31.2 °F 29.1 °F 66% 30.41 in 10.0 mi NNE 16.1 mph 23.0 mph N/A   Clear
8:15 AM 40.5 °F 31.2 °F 29.3 °F 64% 30.41 in 10.0 mi NE 19.6 mph 25.3 mph N/A   Clear
8:35 AM 41.0 °F 32.8 °F 29.1 °F 63% 30.41 in 10.0 mi NE 16.1 mph 28.8 mph N/A   Clear
8:55 AM 41.2 °F 32.7 °F 29.3 °F 63% 30.41 in 10.0 mi NNE 17.3 mph 25.3 mph N/A   Clear
9:15 AM 41.7 °F 33.4 °F 28.9 °F 61% 30.42 in 10.0 mi North 17.3 mph 20.7 mph N/A   Clear
9:35 AM 42.1 °F 33.6 °F 28.0 °F 58% 30.43 in 10.0 mi NNE 18.4 mph 26.5 mph N/A   Clear
9:55 AM 42.8 °F 34.3 °F 27.9 °F 56% 30.42 in 10.0 mi NNE 19.6 mph 26.5 mph N/A   Clear
10:15 AM 43.2 °F 35.0 °F 27.7 °F 54% 30.42 in 10.0 mi NNE 18.4 mph 24.2 mph N/A   Clear
10:35 AM 43.9 °F 36.5 °F 27.9 °F 53% 30.42 in 10.0 mi NNE 16.1 mph 27.6 mph N/A   Clear
10:55 AM 44.1 °F 35.9 °F 27.0 °F 51% 30.41 in 10.0 mi NE 19.6 mph 26.5 mph N/A   Clear
11:15 AM 44.4 °F 36.6 °F 27.3 °F 51% 30.40 in 10.0 mi NNE 18.4 mph 23.0 mph N/A   Clear
11:35 AM 45.3 °F 37.8 °F 26.8 °F 48% 30.38 in 10.0 mi NNE 18.4 mph 24.2 mph N/A   Clear
11:55 AM 45.9 °F 39.1 °F 27.1 °F 48% 30.38 in 10.0 mi NE 16.1 mph 25.3 mph N/A   Clear
12:15 PM 46.6 °F - 27.1 °F 47% 30.35 in 10.0 mi North 20.7 mph 26.5 mph N/A   Clear
12:35 PM 47.1 °F - 26.8 °F 45% 30.35 in 10.0 mi NNE 17.3 mph 25.3 mph N/A   Clear
12:55 PM 48.2 °F - 26.8 °F 43% 30.34 in 10.0 mi NNE 18.4 mph 23.0 mph N/A   Clear
1:15 PM 48.9 °F - 27.9 °F 44% 30.33 in 10.0 mi NNE 15.0 mph 21.9 mph N/A   Clear
1:35 PM 49.1 °F - 27.9 °F 44% 30.32 in 10.0 mi NNE 17.3 mph 25.3 mph N/A   Clear
1:55 PM 48.9 °F - 26.8 °F 42% 30.31 in 10.0 mi NNE 18.4 mph 24.2 mph N/A   Clear
2:15 PM 50.0 °F - 27.1 °F 41% 30.30 in 10.0 mi NE 19.6 mph 27.6 mph N/A   Clear
2:35 PM 49.8 °F - 27.9 °F 43% 30.30 in 10.0 mi NE 13.8 mph 21.9 mph N/A   Clear
2:55 PM 49.8 °F - 27.3 °F 42% 30.30 in 10.0 mi NE 15.0 mph 20.7 mph N/A   Clear
3:15 PM 49.5 °F - 27.1 °F 42% 30.29 in 10.0 mi NE 15.0 mph - N/A   Clear
3:35 PM 48.2 °F - 27.5 °F 45% 30.29 in 10.0 mi NE 15.0 mph 18.4 mph N/A   Clear
3:55 PM 47.3 °F - 29.1 °F 49% 30.31 in 10.0 mi NNE 10.4 mph - N/A   Scattered Clouds
4:15 PM 47.3 °F - 28.4 °F 48% 30.31 in 10.0 mi NNE 8.1 mph 17.3 mph N/A   Scattered Clouds
4:35 PM 46.2 °F 40.8 °F 30.4 °F 54% 30.32 in 10.0 mi NNE 11.5 mph - N/A   Mostly Cloudy
4:55 PM 45.3 °F 39.3 °F 30.2 °F 56% 30.33 in 10.0 mi North 12.7 mph - N/A   Scattered Clouds
5:15 PM 44.6 °F 39.2 °F 30.2 °F 57% 30.33 in 10.0 mi North 10.4 mph 16.1 mph N/A   Clear
5:35 PM 44.1 °F 39.0 °F 30.2 °F 58% 30.33 in 10.0 mi NNE 9.2 mph - N/A   Clear
5:55 PM 43.5 °F 39.4 °F 31.1 °F 62% 30.33 in 10.0 mi NNE 6.9 mph - N/A   Clear
6:15 PM 42.8 °F 37.0 °F 31.5 °F 64% 30.33 in 10.0 mi NNE 10.4 mph - N/A   Clear
6:35 PM 42.3 °F 36.3 °F 31.6 °F 66% 30.34 in 10.0 mi North 10.4 mph - N/A   Clear
6:55 PM 41.9 °F 35.0 °F 31.3 °F 66% 30.34 in 10.0 mi NNE 12.7 mph 17.3 mph N/A   Clear
7:15 PM 41.9 °F 35.9 °F 30.9 °F 65% 30.35 in 10.0 mi North 10.4 mph 17.3 mph N/A   Clear
7:35 PM 41.5 °F 35.4 °F 30.9 °F 66% 30.36 in 10.0 mi North 10.4 mph - N/A   Clear
7:55 PM 41.2 °F 35.0 °F 30.2 °F 65% 30.35 in 10.0 mi NNE 10.4 mph - N/A   Clear
8:15 PM 41.0 °F 35.2 °F 30.2 °F 65% 30.35 in 10.0 mi NNE 9.2 mph - N/A   Clear
8:35 PM 40.6 °F 35.4 °F 30.4 °F 67% 30.35 in 10.0 mi NNE 8.1 mph - N/A   Clear
8:55 PM 40.3 °F 34.9 °F 30.4 °F 68% 30.35 in 10.0 mi NNE 8.1 mph - N/A   Scattered Clouds
9:15 PM 41.0 °F 34.3 °F 30.9 °F 67% 30.35 in 10.0 mi NNE 11.5 mph - N/A   Mostly Cloudy
9:35 PM 40.6 °F 33.8 °F 30.7 °F 68% 30.34 in 10.0 mi NE 11.5 mph - N/A   Mostly Cloudy
9:55 PM 40.5 °F 34.1 °F 30.7 °F 68% 30.35 in 10.0 mi NE 10.4 mph - N/A   Clear
10:15 PM 40.5 °F 35.1 °F 30.7 °F 68% 30.34 in 10.0 mi NE 8.1 mph - N/A   Clear
10:35 PM 40.3 °F 34.4 °F 30.7 °F 69% 30.34 in 10.0 mi NNE 9.2 mph - N/A   Scattered Clouds
10:55 PM 40.3 °F 33.9 °F 30.9 °F 69% 30.34 in 10.0 mi NE 10.4 mph - N/A   Mostly Cloudy
11:15 PM 40.3 °F 33.0 °F 30.6 °F 68% 30.33 in 10.0 mi NE 12.7 mph - N/A   Overcast
11:35 PM 40.3 °F 34.4 °F 30.7 °F 69% 30.33 in 10.0 mi NNE 9.2 mph 16.1 mph N/A   Overcast
11:55 PM 40.3 °F 34.9 °F 31.1 °F 70% 30.33 in 10.0 mi NE 8.1 mph - N/A   Overcast